Regional Weather Roundup
Issued by NWS Charleston, WV

Home | Current Version | Previous Version | Text Only | Print | Product List | Glossary Off
Versions: 1 2 3 4 5 6 7 8 9 10 11 12 13 14 15 16 17 18 19 20 21 22 23 24 25 26 27 28 29 30 31 32 33 34 35 36 37 38 39 40 41 42 43 44 45 46 47 48 49 50

000
ASUS41 KRLX 240310
RWRRLX
West Virginia Regional Weather Roundup
National Weather Service Charleston WV
1000 PM EST THU FEB 23 2017

Note: "fair" indicates few or no clouds below 12,000 feet with no
significant weather and/or obstructions to visibility.

WVZ003-240400-
Northern Panhandle of West Virginia

CITY           SKY/WX    TMP DP  RH WIND       PRES   REMARKS
WHEELING       PTCLDY    62  52  69 S7        29.83R
$$

WVZ009-240400-
Northwest West Virginia

CITY           SKY/WX    TMP DP  RH WIND       PRES   REMARKS
PARKERSBURG    CLOUDY    62  53  72 S5        29.86S
$$

WVZ006-240400-
Western West Virginia

CITY           SKY/WX    TMP DP  RH WIND       PRES   REMARKS
HUNTINGTON     CLEAR     55  53  93 CALM      29.82R
$$

WVZ015-240400-
West Central West Virginia

CITY           SKY/WX    TMP DP  RH WIND       PRES   REMARKS
CHARLESTON     CLEAR     56  53  90 CALM      29.83S
$$

WVZ022-031-240400-
North Central West Virginia

CITY           SKY/WX    TMP DP  RH WIND       PRES   REMARKS
CLARKSBURG     CLOUDY    60  51  72 S3        29.85F
MORGANTOWN     MOCLDY    62  50  64 S5        29.86S
$$

WVZ025-035-042-045-240400-
Southern West Virginia

CITY           SKY/WX    TMP DP  RH WIND       PRES   REMARKS
BECKLEY        CLEAR     56  49  77 SE8       29.89F
LOGAN            N/A     59  54  82 CALM      29.85S
BLUEFIELD      CLEAR     57  48  72 S9        29.92S
LEWISBURG      CLEAR     51  47  89 CALM      29.91S
$$

WVZ047-240400-
Northern Mountains of West Virginia

CITY           SKY/WX    TMP DP  RH WIND       PRES   REMARKS
ELKINS         PTCLDY    48  44  86 CALM      29.90R
$$

WVZ052-240400-
Eastern Panhandle of West Virginia

CITY           SKY/WX    TMP DP  RH WIND       PRES   REMARKS
MARTINSBURG    CLOUDY    58  49  72 CALM      29.85R
PETERSBURG     PTCLDY    56  50  80 CALM      29.87S
$$



USA.gov is the U.S. government's official web portal to all federal, state and local government web resources and services.